Regional Weather Roundup
Issued by NWS Little Rock, AR

Home | Current Version | Previous Version | Graphics & Text | Print | Product List | Glossary On
Versions: 1 2 3 4 5 6 7 8 9 10 11 12 13 14 15 16 17 18 19 20 21 22 23 24 25 26 27 28 29 30 31 32 33 34 35 36 37 38 39 40 41 42 43 44 45 46 47 48 49 50
000
ASUS44 KLZK 080405
RWRLZK

WEATHER ROUNDUP FOR ARKANSAS
NATIONAL WEATHER SERVICE LITTLE ROCK AR
1000 PM CST WED DEC 07 2016

NOTE: "FAIR" INDICATES FEW OR NO CLOUDS BELOW 12,000 FEET WITH NO
SIGNIFICANT WEATHER AND/OR OBSTRUCTIONS TO VISIBILITY.

ARZ001-003-010-029-080500-
NORTHWEST ARKANSAS

CITY           SKY/WX    TMP DP  RH WIND       PRES   REMARKS
FAYETTEVILLE   CLOUDY    30  24  78 N7        30.38R WCI  23
FORT SMITH     CLOUDY    36  31  82 NW3       30.38R
HARRISON       CLOUDY    31  22  69 N9        30.35R WCI  23
BENTONVILLE    PTCLDY    28  19  69 N12       30.39R WCI  18
ROGERS         CLOUDY    28  24  85 N8        30.39R WCI  20
SILOAM SPGS    PTCLDY    28  21  74 N8        30.39R WCI  20
HIGHFILL       PTCLDY    28  23  81 N8        30.38R WCI  20
$$

ARZ004-005-016-080500-
NORTH CENTRAL ARKANSAS

CITY           SKY/WX    TMP DP  RH WIND       PRES   REMARKS
BATESVILLE     CLOUDY    39  19  45 NW3       30.33R
FLIPPIN        CLOUDY    36  18  48 N8        30.33R
MTN HOME       CLOUDY    34  20  56 N6        30.34R WCI  29
$$

ARZ040-041-080500-
WEST CENTRAL ARKANSAS

CITY           SKY/WX    TMP DP  RH WIND       PRES   REMARKS
MENA           CLOUDY    37  36  93 N9        30.32R
MOUNT IDA      CLOUDY    37  33  85 CALM      30.30R
$$

ARZ009-017-025-026-028-080500-
NORTHEAST ARKANSAS

CITY           SKY/WX    TMP DP  RH WIND       PRES   REMARKS
CORNING        CLOUDY    39  25  56 N10       30.33R
JONESBORO      CLOUDY    41  25  53 N8        30.31R
WALNUT RIDGE   CLOUDY    39  21  48 N12       30.32R
BLYTHEVILLE    CLOUDY    39  28  64 N15       30.31R
$$

ARZ022-023-033-042-044-080500-
CENTRAL ARKANSAS

CITY           SKY/WX    TMP DP  RH WIND       PRES   REMARKS
LITTLE ROCK    CLOUDY    38  30  73 N13       30.33R
N LITTLE ROCK    N/A     37  29  75 N6        30.36R
JACKSONVILLE   PTCLDY    39  27  61 NW3       30.32R
SEARCY         CLOUDY    40  23  50 N7        30.34R
HOT SPRINGS    CLOUDY    38  34  85 N6        30.32R
RUSSELLVILLE   CLOUDY    35  33  92 NW3       30.34R
CLINTON        CLOUDY    39  21  48 VRB3      30.33R
$$

ARZ036-080500-
EAST ARKANSAS

CITY           SKY/WX    TMP DP  RH WIND       PRES   REMARKS
WEST MEMPHIS   CLOUDY    41  30  65 N8        30.27R
$$

ARZ050-053-066-070-073-080500-
SOUTHWEST ARKANSAS

CITY           SKY/WX    TMP DP  RH WIND       PRES   REMARKS
ARKADELPHIA    CLOUDY    39  35  86 N9        30.32R
CAMDEN         LGT RAIN  41  36  81 N9        30.30R
TEXARKANA      CLOUDY    41  40  96 NE8       30.29R FOG
EL DORADO      CLOUDY    44  41  89 N7        30.27R
DE QUEEN       CLOUDY    40  38  93 NE8       30.31R
$$

ARZ056-057-069-080500-
SOUTHEAST ARKANSAS

CITY           SKY/WX    TMP DP  RH WIND       PRES   REMARKS
PINE BLUFF     CLOUDY    41  33  73 N14G20    30.30R
STUTTGART      CLOUDY    41  28  60 N9        30.31R
MONTICELLO     CLOUDY    44  38  79 N7        30.27R

$$





USA.gov is the U.S. government's official web portal to all federal, state and local government web resources and services.